Total_Precipitation_Accumulation
0.98 0.72 1.07 1.07 0.94 0.84 0.87 0.91 0.86 0.76 0.76 0.72 0.57 0.51 0.52 0.49 0.44 0.37 0.30 0.24 0.24 0.24 0.27 0.30 0.32 0.38 0.35 0.30 0.33 0.42 0.44 0.39 0.35 0.35 0.43 0.50 0.53 0.60 0.68 0.78 1.03 1.24 0.89
0.82 0.67 1.09 1.15 1.03 0.90 0.82 0.84 0.91 0.83 0.86 0.78 0.67 0.58 0.56 0.52 0.44 0.35 0.27 0.22 0.23 0.24 0.26 0.28 0.34 0.35 0.35 0.37 0.41 0.47 0.43 0.34 0.29 0.34 0.55 0.70 0.63 0.59 0.58 0.66 1.01 1.17 0.85
0.67 0.61 0.86 1.16 1.13 0.98 0.88 0.87 0.94 0.91 0.97 0.89 0.82 0.71 0.63 0.55 0.48 0.39 0.31 0.30 0.30 0.27 0.27 0.29 0.40 0.41 0.38 0.45 0.47 0.47 0.44 0.32 0.29 0.42 0.79 1.38 1.00 0.60 0.53 0.64 0.87 0.78 0.77
0.67 0.63 0.73 1.00 1.01 0.95 0.91 0.94 1.02 1.00 1.08 1.02 0.85 0.70 0.57 0.56 0.57 0.48 0.43 0.50 0.37 0.28 0.27 0.33 0.42 0.45 0.42 0.44 0.47 0.44 0.44 0.42 0.45 0.55 0.97 1.38 1.39 0.87 0.74 0.85 0.88 0.79 0.85
0.70 0.66 0.90 1.11 1.07 1.02 0.96 1.08 1.16 1.16 1.19 1.04 0.77 0.60 0.55 0.59 0.64 0.67 0.66 0.63 0.42 0.33 0.30 0.34 0.42 0.47 0.43 0.41 0.42 0.38 0.39 0.48 0.65 0.78 1.08 1.32 1.53 1.10 0.89 0.92 0.91 0.83 0.93
0.70 0.69 0.89 1.12 1.10 1.06 1.04 1.14 1.22 1.29 1.28 1.16 0.85 0.67 0.64 0.72 0.73 0.72 0.77 0.63 0.53 0.46 0.39 0.41 0.45 0.48 0.42 0.40 0.42 0.40 0.46 0.54 0.62 0.88 1.16 1.39 1.44 1.05 0.85 0.89 0.91 1.02 1.02
0.69 0.63 0.69 0.94 0.99 1.01 1.05 1.22 1.30 1.35 1.36 1.27 1.03 0.86 0.76 0.73 0.74 0.76 0.81 0.68 0.62 0.54 0.52 0.54 0.53 0.51 0.48 0.47 0.44 0.43 0.46 0.48 0.53 0.76 0.99 1.41 1.27 0.93 0.79 0.84 0.89 0.97 1.01
0.85 0.73 0.65 0.77 0.87 0.93 1.00 1.13 1.21 1.24 1.24 1.21 1.04 0.90 0.83 0.79 0.76 0.83 0.89 0.78 0.70 0.62 0.56 0.58 0.58 0.57 0.55 0.52 0.48 0.47 0.47 0.42 0.41 0.58 0.82 1.18 1.18 1.00 0.83 0.86 1.00 0.98 0.99
1.04 0.94 0.76 0.71 0.79 0.93 1.06 1.08 1.07 1.07 1.09 1.07 0.98 0.93 0.87 0.83 0.75 0.77 0.81 0.75 0.73 0.74 0.69 0.63 0.61 0.60 0.56 0.55 0.53 0.52 0.50 0.43 0.45 0.56 0.62 1.02 1.08 1.01 0.88 0.88 1.02 1.11 1.13
1.24 1.05 0.84 0.72 0.73 0.76 0.81 0.94 1.03 1.07 1.07 1.06 0.95 0.87 0.82 0.77 0.68 0.70 0.66 0.63 0.69 0.79 0.85 0.77 0.68 0.65 0.61 0.56 0.53 0.57 0.54 0.40 0.43 0.52 0.64 0.79 0.95 1.01 0.92 0.79 0.80 0.86 0.96
1.05 0.95 0.96 0.93 0.89 0.87 0.80 0.84 1.03 1.12 1.13 1.03 0.96 0.90 0.82 0.63 0.54 0.60 0.56 0.68 0.77 0.90 0.95 0.93 0.85 0.73 0.64 0.56 0.53 0.57 0.46 0.35 0.46 0.52 0.65 0.68 0.89 1.02 0.94 0.76 0.69 0.64 0.75
0.77 0.77 0.82 0.87 0.94 0.96 0.86 1.04 1.28 1.16 1.03 0.84 0.87 0.79 0.76 0.71 0.68 0.56 0.59 0.75 0.89 0.94 0.92 0.95 0.97 0.84 0.66 0.48 0.50 0.49 0.34 0.32 0.38 0.41 0.48 0.64 0.84 0.96 0.95 0.84 0.68 0.57 0.64
0.67 0.66 0.65 0.70 0.78 0.87 0.99 1.20 1.51 1.55 1.33 1.15 0.97 0.90 0.86 0.76 0.68 0.63 0.61 0.67 0.74 0.77 0.68 0.73 0.77 0.64 0.54 0.52 0.54 0.42 0.33 0.33 0.33 0.38 0.51 0.71 0.90 0.98 0.92 0.86 0.78 0.69 0.65
0.54 0.58 0.49 0.46 0.58 0.68 0.79 0.91 1.20 1.27 1.21 1.08 0.91 0.84 0.90 0.85 0.75 0.71 0.68 0.72 0.73 0.71 0.77 0.79 0.83 0.75 0.60 0.53 0.54 0.54 0.47 0.39 0.41 0.52 0.63 0.69 0.91 1.03 0.98 0.91 0.87 0.80 0.74
0.57 0.60 0.54 0.46 0.47 0.51 0.55 0.62 0.76 0.92 1.03 1.03 0.99 0.83 0.82 0.81 0.76 0.78 0.73 0.77 0.69 0.67 0.75 0.81 0.81 0.83 0.74 0.62 0.57 0.57 0.64 0.56 0.50 0.55 0.69 0.78 0.99 1.16 1.22 1.11 0.98 0.91 0.89
0.51 0.63 0.62 0.52 0.48 0.50 0.47 0.47 0.48 0.61 0.76 0.92 0.94 0.83 0.85 0.86 0.81 0.86 0.83 0.83 0.79 0.73 0.75 0.90 0.84 0.88 0.87 0.79 0.63 0.59 0.62 0.58 0.53 0.55 0.65 0.89 0.97 0.99 1.20 1.37 1.28 1.13 1.00
0.45 0.50 0.57 0.54 0.56 0.60 0.59 0.59 0.49 0.52 0.59 0.73 0.85 0.84 0.90 0.85 0.77 0.82 0.85 0.82 0.81 0.82 0.82 0.87 0.88 0.93 0.84 0.78 0.70 0.64 0.61 0.54 0.49 0.53 0.57 0.66 0.64 0.68 0.89 1.17 1.36 1.29 1.18
0.47 0.50 0.54 0.56 0.63 0.68 0.74 0.75 0.69 0.74 0.76 0.77 0.92 0.89 0.84 0.87 0.84 0.84 0.90 0.91 0.95 0.99 0.96 0.96 0.99 1.00 0.95 0.91 0.87 0.79 0.63 0.62 0.55 0.57 0.57 0.57 0.61 0.55 0.66 0.78 0.98 1.12 1.24
0.43 0.44 0.48 0.56 0.61 0.64 0.72 0.85 0.98 1.02 1.02 0.98 1.01 0.97 0.87 0.85 0.91 1.03 1.06 1.11 1.09 1.10 1.12 1.08 1.10 1.03 1.01 0.99 0.89 0.84 0.73 0.71 0.66 0.57 0.66 0.67 0.67 0.61 0.62 0.56 0.61 0.67 0.86
0.34 0.36 0.41 0.49 0.65 0.79 0.87 0.92 1.07 1.13 1.21 1.30 1.35 1.22 1.09 1.10 1.22 1.36 1.45 1.40 1.38 1.37 1.35 1.30 1.38 1.27 1.08 1.05 0.98 0.88 0.74 0.69 0.74 0.69 0.72 0.73 0.76 0.74 0.69 0.57 0.49 0.42 0.50
0.22 0.28 0.33 0.39 0.55 0.69 0.79 0.91 1.10 1.28 1.46 1.62 1.74 1.63 1.49 1.44 1.61 1.72 1.65 1.73 1.77 1.62 1.61 1.65 1.71 1.65 1.39 1.24 1.29 1.14 0.87 0.66 0.72 0.72 0.72 0.75 0.82 0.94 0.98 0.83 0.65 0.54 0.45
0.14 0.17 0.23 0.30 0.42 0.55 0.70 0.93 1.15 1.45 1.54 1.63 1.77 1.82 1.76 1.69 1.84 1.88 1.95 2.02 2.05 2.03 1.99 1.88 1.95 2.03 1.77 1.53 1.61 1.86 1.44 1.04 0.73 0.61 0.70 0.73 0.83 1.07 1.15 1.00 0.80 0.66 0.56
0.10 0.11 0.18 0.29 0.44 0.66 0.88 1.19 1.49 1.73 1.81 1.86 1.81 1.88 1.97 2.02 2.08 2.10 2.16 2.21 2.20 2.05 2.04 2.13 2.23 2.53 2.32 1.98 1.80 2.02 1.78 1.45 1.17 0.77 0.71 0.77 0.87 1.05 1.17 1.21 1.08 0.97 0.84
0.12 0.16 0.26 0.42 0.62 0.90 1.23 1.58 1.81 2.04 2.14 1.99 1.97 2.01 2.03 1.98 2.01 2.12 2.13 2.13 2.09 2.02 2.08 2.15 2.18 2.54 2.70 2.39 2.09 1.75 1.53 1.48 1.50 1.19 0.87 0.83 0.91 0.93 1.05 1.13 1.09 1.15 1.11
0.25 0.32 0.48 0.72 1.01 1.29 1.52 1.69 1.91 2.04 2.06 2.04 2.00 2.00 1.93 1.91 1.87 1.91 1.93 2.01 2.04 2.07 2.12 2.27 2.37 2.60 2.62 2.60 2.42 2.24 2.01 1.70 1.35 1.35 1.29 1.07 1.01 0.93 1.02 1.16 1.21 1.28 1.26
0.42 0.55 0.73 0.91 1.19 1.36 1.47 1.60 1.79 1.93 1.97 2.00 1.98 1.99 1.98 1.95 1.85 1.79 1.76 1.82 1.94 2.11 2.16 2.24 2.37 2.60 2.70 2.77 2.68 2.43 2.31 2.12 1.80 1.66 1.41 1.29 1.26 1.09 1.07 1.10 1.15 1.25 1.36